Regional Weather Roundup
Issued by NWS

Home | Current Version | Previous Version | Graphics & Text | Print | Product List | Glossary On
Versions: 1 2 3 4 5 6 7 8 9 10 11 12 13 14 15 16 17 18 19 20 21 22 23 24 25 26 27 28 29 30 31 32 33 34 35 36 37 38 39 40 41 42 43 44 45 46 47 48 49 50
000
ASUS45 KCYS 040010
RWRWY

WYOMING REGIONAL WEATHER ROUNDUP
NATIONAL WEATHER SERVICE CHEYENNE WY
600 PM MDT FRI JUL 03 2015

NOTE:  "FAIR" INDICATES FEW OR NO CLOUDS BELOW 12,000 FEET
WITH NO SIGNIFICANT WEATHER AND/OR OBSTRUCTIONS TO VISIBILITY.

WYZ001-040100-
YELLOWSTONE NATIONAL PARK

CITY           SKY/WX    TMP DP  RH WIND       PRES   REMARKS
LK YELLOWSTONE   N/A     76  34  21 W8        30.22S
6HR MIN TEMP:  72; 6HR MAX TEMP:  80;

W YELLOWSTONE  NOT AVBL

$$
WYZ002>013-054>058-071-098>099-040100-
NORTHERN WYOMING

CITY           SKY/WX    TMP DP  RH WIND       PRES   REMARKS
JACKSON        FAIR      82  41  23 NW5       30.09S
CODY           FAIR      79  55  44 SE3       29.98F
GREYBULL       FAIR      92  41  17 NW6       29.86F
6HR MIN TEMP:  85; 6HR MAX TEMP:  95;

WORLAND        FAIR      90  47  22 S7        29.86F
6HR MIN TEMP:  85; 6HR MAX TEMP:  95;

SHERIDAN       FAIR      89  54  30 E5        29.91F
6HR MIN TEMP:  83; 6HR MAX TEMP:  90;

BUFFALO        FAIR      84  52  33 S6        30.00F
6HR MIN TEMP:  79; 6HR MAX TEMP:  86;

GILLETTE       FAIR      85  51  31 VRB5      29.96F
6HR MIN TEMP:  80; 6HR MAX TEMP:  88;

HULETT         FAIR      82  61  47 E12       29.99F
NEWCASTLE      FAIR      81  50  34 E5        30.00F

$$
WYZ014>020-022>026-101>103-040100-
CENTRAL WYOMING

CITY           SKY/WX    TMP DP  RH WIND       PRES   REMARKS
BIG PINEY      FAIR      87  34  15 NW14      30.14F
6HR MIN TEMP:  80; 6HR MAX TEMP:  89;

PINEDALE       FAIR      81  37  21 NW22      30.16S
DUBOIS         FAIR      81  32  17 N18G26    30.12F
LANDER         FAIR      92  44  19 MISG      29.94F
6HR MIN TEMP:  78; 6HR MAX TEMP:  92;

RIVERTON       FAIR      92  43  18 CALM      29.95F
6HR MIN TEMP:  78; 6HR MAX TEMP:  93;

CASPER         PTSUNNY   79  46  31 S20G30    30.00S
6HR MIN TEMP:  79; 6HR MAX TEMP:  89;

DOUGLAS        FAIR      84  53  34 SE16      30.02F
6HR MIN TEMP:  80; 6HR MAX TEMP:  86;


$$
WYZ021-027>030-104>119-040100-
SOUTHERN WYOMING

CITY           SKY/WX    TMP DP  RH WIND       PRES   REMARKS
EVANSTON       CLOUDY    86  36  16 NW9G24    30.16F
6HR MIN TEMP:  81; 6HR MAX TEMP:  89;

KEMMERER       FAIR     N/A N/A N/A NW16G23   30.17F
FORT BRIDGER   PTCLDY    86  32  14 NW10      30.17F
ROCK SPRINGS   FAIR      86  31  13 W5        30.10F
6HR MIN TEMP:  79; 6HR MAX TEMP:  88;

DIXON          FAIR      87  32  14 CALM      30.11F
RAWLINS        FAIR      85  34  16 VRB7      30.11F
6HR MIN TEMP:  74; 6HR MAX TEMP:  87;

SARATOGA       FAIR      82  32  16 N8        30.14F
LARAMIE        FAIR      77  48  35 E22       30.17S
6HR MIN TEMP:  75; 6HR MAX TEMP:  83;

CHEYENNE       CLOUDY    74  54  49 S6        30.16R
6HR MIN TEMP:  73; 6HR MAX TEMP:  81;

TORRINGTON     FAIR      84  53  34 SE12      29.99F
6HR MIN TEMP:  79; 6HR MAX TEMP:  87;

PINE BLUFFS    FAIR      79  54  41 S6        30.08F

$$



USA.gov is the U.S. government's official web portal to all federal, state and local government web resources and services.